owner,sensor,date,latitude,longitude,relative_humidity,qcFlag 
COMPS,ioos:station:USF.COMPS:C13:1,2015-10-01T00:05:00Z,26.0630,-83.0730,78.47,1111122 
COMPS,ioos:station:USF.COMPS:C13:1,2015-10-01T00:35:00Z,26.0630,-83.0730,81.38,1111122 
COMPS,ioos:station:USF.COMPS:C13:1,2015-10-01T01:05:00Z,26.0630,-83.0730,83.84,1111122 
COMPS,ioos:station:USF.COMPS:C13:1,2015-10-01T01:35:00Z,26.0630,-83.0730,83.55,1111122 
COMPS,ioos:station:USF.COMPS:C13:1,2015-10-01T02:05:00Z,26.0630,-83.0730,83.34,1111122 
COMPS,ioos:station:USF.COMPS:C13:1,2015-10-01T02:35:00Z,26.0630,-83.0730,81.07,1111122 
COMPS,ioos:station:USF.COMPS:C13:1,2015-10-01T04:05:00Z,26.0630,-83.0730,80.25,1111122 
COMPS,ioos:station:USF.COMPS:C13:1,2015-10-01T04:35:00Z,26.0630,-83.0730,81.83,1111122 
COMPS,ioos:station:USF.COMPS:C13:1,2015-10-01T05:05:00Z,26.0630,-83.0730,83.03,1111122 
COMPS,ioos:station:USF.COMPS:C13:1,2015-10-01T05:35:00Z,26.0630,-83.0730,83.1,1111122 
COMPS,ioos:station:USF.COMPS:C13:1,2015-10-01T06:05:00Z,26.0630,-83.0730,82.54,1111122 
COMPS,ioos:station:USF.COMPS:C13:1,2015-10-01T06:35:00Z,26.0630,-83.0730,82.3,1111122 
COMPS,ioos:station:USF.COMPS:C13:1,2015-10-01T08:05:00Z,26.0630,-83.0730,81.52,1111122 
COMPS,ioos:station:USF.COMPS:C13:1,2015-10-01T08:35:00Z,26.0630,-83.0730,81.62,1111122 
COMPS,ioos:station:USF.COMPS:C13:1,2015-10-01T13:05:00Z,26.0630,-83.0730,78.93,1111122 
COMPS,ioos:station:USF.COMPS:C13:1,2015-10-01T13:35:00Z,26.0630,-83.0730,79.19,1111122 
COMPS,ioos:station:USF.COMPS:C13:1,2015-10-01T14:05:00Z,26.0630,-83.0730,78.69,1111122 
COMPS,ioos:station:USF.COMPS:C13:1,2015-10-01T14:35:00Z,26.0630,-83.0730,78.56,1111122 
COMPS,ioos:station:USF.COMPS:C13:1,2015-10-01T18:05:00Z,26.0630,-83.0730,79.74,1111122 
COMPS,ioos:station:USF.COMPS:C13:1,2015-10-01T18:35:00Z,26.0630,-83.0730,79.98,1111122 
COMPS,ioos:station:USF.COMPS:C13:1,2015-10-01T20:05:00Z,26.0630,-83.0730,82.05,1111122 
COMPS,ioos:station:USF.COMPS:C13:1,2015-10-01T20:35:00Z,26.0630,-83.0730,81.52,1111122 
COMPS,ioos:station:USF.COMPS:C13:1,2015-10-01T22:05:00Z,26.0630,-83.0730,79.95,1111122 
COMPS,ioos:station:USF.COMPS:C13:1,2015-10-01T22:35:00Z,26.0630,-83.0730,75.73,1111122 
COMPS,ioos:station:USF.COMPS:C13:1,2015-10-01T23:05:00Z,26.0630,-83.0730,78.35,1111122 
COMPS,ioos:station:USF.COMPS:C13:1,2015-10-01T23:35:00Z,26.0630,-83.0730,79.45,1111122 
COMPS,ioos:station:USF.COMPS:C13:1,2015-10-02T00:05:00Z,26.0630,-83.0730,80.11,1111122 
COMPS,ioos:station:USF.COMPS:C13:1,2015-10-02T00:35:00Z,26.0630,-83.0730,82.9,1111122 
COMPS,ioos:station:USF.COMPS:C13:1,2015-10-02T01:05:00Z,26.0630,-83.0730,81.52,1111122 
COMPS,ioos:station:USF.COMPS:C13:1,2015-10-02T01:35:00Z,26.0630,-83.0730,80.33,1111122 
COMPS,ioos:station:USF.COMPS:C13:1,2015-10-02T04:05:00Z,26.0630,-83.0730,82.07,1111122 
COMPS,ioos:station:USF.COMPS:C13:1,2015-10-02T04:35:00Z,26.0630,-83.0730,79.65,1111122 
COMPS,ioos:station:USF.COMPS:C13:1,2015-10-02T05:05:00Z,26.0630,-83.0730,81.11,1111122 
COMPS,ioos:station:USF.COMPS:C13:1,2015-10-02T05:35:00Z,26.0630,-83.0730,81.02,1111122 
COMPS,ioos:station:USF.COMPS:C13:1,2015-10-02T08:05:00Z,26.0630,-83.0730,80.16,1111122 
COMPS,ioos:station:USF.COMPS:C13:1,2015-10-02T08:35:00Z,26.0630,-83.0730,81.18,1111122 
COMPS,ioos:station:USF.COMPS:C13:1,2015-10-02T09:05:00Z,26.0630,-83.0730,81.25,1111122 
COMPS,ioos:station:USF.COMPS:C13:1,2015-10-02T09:35:00Z,26.0630,-83.0730,81.09,1111122 
COMPS,ioos:station:USF.COMPS:C13:1,2015-10-02T10:05:00Z,26.0630,-83.0730,79.69,1111122 
COMPS,ioos:station:USF.COMPS:C13:1,2015-10-02T10:35:00Z,26.0630,-83.0730,80.14,1111122 
COMPS,ioos:station:USF.COMPS:C13:1,2015-10-02T11:05:00Z,26.0630,-83.0730,82.59,1111122 
COMPS,ioos:station:USF.COMPS:C13:1,2015-10-02T11:35:00Z,26.0630,-83.0730,80.04,1111122 
COMPS,ioos:station:USF.COMPS:C13:1,2015-10-02T13:05:00Z,26.0630,-83.0730,79.85,1111122 
COMPS,ioos:station:USF.COMPS:C13:1,2015-10-02T13:35:00Z,26.0630,-83.0730,78.68,1111122 
COMPS,ioos:station:USF.COMPS:C13:1,2015-10-02T14:05:00Z,26.0630,-83.0730,78.83,1111122 
COMPS,ioos:station:USF.COMPS:C13:1,2015-10-02T14:35:00Z,26.0630,-83.0730,78.11,1111122 
COMPS,ioos:station:USF.COMPS:C13:1,2015-10-02T15:05:00Z,26.0630,-83.0730,76.32,1111122 
COMPS,ioos:station:USF.COMPS:C13:1,2015-10-02T15:35:00Z,26.0630,-83.0730,76.12,1111122 
COMPS,ioos:station:USF.COMPS:C13:1,2015-10-03T04:05:00Z,26.0630,-83.0730,74.84,1111122 
COMPS,ioos:station:USF.COMPS:C13:1,2015-10-03T04:35:00Z,26.0630,-83.0730,73.03,1111122 
COMPS,ioos:station:USF.COMPS:C13:1,2015-10-03T07:05:00Z,26.0630,-83.0730,69.48,1111122 
COMPS,ioos:station:USF.COMPS:C13:1,2015-10-03T07:35:00Z,26.0630,-83.0730,70.73,1111122 
COMPS,ioos:station:USF.COMPS:C13:1,2015-10-03T09:05:00Z,26.0630,-83.0730,65.46,1111122 
COMPS,ioos:station:USF.COMPS:C13:1,2015-10-03T09:35:00Z,26.0630,-83.0730,66.75,1111122 
COMPS,ioos:station:USF.COMPS:C13:1,2015-10-03T22:05:00Z,26.0630,-83.0730,71.61,1111122 
COMPS,ioos:station:USF.COMPS:C13:1,2015-10-03T22:35:00Z,26.0630,-83.0730,85.65,1111122 
COMPS,ioos:station:USF.COMPS:C13:1,2015-10-03T23:05:00Z,26.0630,-83.0730,73.88,1111122 
COMPS,ioos:station:USF.COMPS:C13:1,2015-10-03T23:35:00Z,26.0630,-83.0730,74.42,1111122 
COMPS,ioos:station:USF.COMPS:C13:1,2015-10-04T00:05:00Z,26.0630,-83.0730,72.3,1111122 
COMPS,ioos:station:USF.COMPS:C13:1,2015-10-04T00:35:00Z,26.0630,-83.0730,72.43,1111122 
COMPS,ioos:station:USF.COMPS:C13:1,2015-10-04T01:05:00Z,26.0630,-83.0730,72.74,1111122 
COMPS,ioos:station:USF.COMPS:C13:1,2015-10-04T01:35:00Z,26.0630,-83.0730,73.42,1111122 
COMPS,ioos:station:USF.COMPS:C13:1,2015-10-04T06:05:00Z,26.0630,-83.0730,75.08,1111122 
COMPS,ioos:station:USF.COMPS:C13:1,2015-10-04T06:35:00Z,26.0630,-83.0730,73.89,1111122 
COMPS,ioos:station:USF.COMPS:C13:1,2015-10-04T13:05:00Z,26.0630,-83.0730,74.84,1111122 
COMPS,ioos:station:USF.COMPS:C13:1,2015-10-04T13:35:00Z,26.0630,-83.0730,74.66,1111122 
COMPS,ioos:station:USF.COMPS:C13:1,2015-10-04T23:05:00Z,26.0630,-83.0730,74.71,1111122 
COMPS,ioos:station:USF.COMPS:C13:1,2015-10-04T23:35:00Z,26.0630,-83.0730,76.01,1111122 
COMPS,ioos:station:USF.COMPS:C13:1,2015-10-05T01:05:00Z,26.0630,-83.0730,70.07,1111122 
COMPS,ioos:station:USF.COMPS:C13:1,2015-10-05T01:35:00Z,26.0630,-83.0730,76.43,1111122 
COMPS,ioos:station:USF.COMPS:C13:1,2015-10-05T08:05:00Z,26.0630,-83.0730,74.28,1111122 
COMPS,ioos:station:USF.COMPS:C13:1,2015-10-05T08:35:00Z,26.0630,-83.0730,78.0,1111122 
COMPS,ioos:station:USF.COMPS:C13:1,2015-10-05T18:05:00Z,26.0630,-83.0730,79.99,1111122 
COMPS,ioos:station:USF.COMPS:C13:1,2015-10-05T18:35:00Z,26.0630,-83.0730,75.25,1111122 
COMPS,ioos:station:USF.COMPS:C13:1,2015-10-05T23:05:00Z,26.0630,-83.0730,74.53,1111122 
COMPS,ioos:station:USF.COMPS:C13:1,2015-10-05T23:35:00Z,26.0630,-83.0730,84.96,1111122 
COMPS,ioos:station:USF.COMPS:C13:1,2015-10-06T00:05:00Z,26.0630,-83.0730,88.01,1111122 
COMPS,ioos:station:USF.COMPS:C13:1,2015-10-06T00:35:00Z,26.0630,-83.0730,88.6,1111122 
COMPS,ioos:station:USF.COMPS:C13:1,2015-10-06T18:05:00Z,26.0630,-83.0730,78.28,1111122 
COMPS,ioos:station:USF.COMPS:C13:1,2015-10-06T18:35:00Z,26.0630,-83.0730,77.47,1111122 
COMPS,ioos:station:USF.COMPS:C13:1,2015-10-06T21:05:00Z,26.0630,-83.0730,74.52,1111122 
COMPS,ioos:station:USF.COMPS:C13:1,2015-10-06T21:35:00Z,26.0630,-83.0730,75.82,1111122 
COMPS,ioos:station:USF.COMPS:C13:1,2015-10-06T23:05:00Z,26.0630,-83.0730,73.04,1111122 
COMPS,ioos:station:USF.COMPS:C13:1,2015-10-06T23:35:00Z,26.0630,-83.0730,71.72,1111122 
COMPS,ioos:station:USF.COMPS:C13:1,2015-10-07T05:05:00Z,26.0630,-83.0730,79.78,1111122 
COMPS,ioos:station:USF.COMPS:C13:1,2015-10-07T05:35:00Z,26.0630,-83.0730,78.19,1111122 
COMPS,ioos:station:USF.COMPS:C13:1,2015-10-07T08:05:00Z,26.0630,-83.0730,73.9,1111122 
COMPS,ioos:station:USF.COMPS:C13:1,2015-10-07T08:35:00Z,26.0630,-83.0730,73.81,1111122 
COMPS,ioos:station:USF.COMPS:C13:1,2015-10-07T09:05:00Z,26.0630,-83.0730,76.16,1111122 
COMPS,ioos:station:USF.COMPS:C13:1,2015-10-07T09:35:00Z,26.0630,-83.0730,74.66,1111122 
COMPS,ioos:station:USF.COMPS:C13:1,2015-10-07T14:05:00Z,26.0630,-83.0730,72.04,1111122 
COMPS,ioos:station:USF.COMPS:C13:1,2015-10-07T14:35:00Z,26.0630,-83.0730,72.29,1111122 
COMPS,ioos:station:USF.COMPS:C13:1,2015-10-07T15:05:00Z,26.0630,-83.0730,72.11,1111122 
COMPS,ioos:station:USF.COMPS:C13:1,2015-10-07T15:35:00Z,26.0630,-83.0730,72.28,1111122 
COMPS,ioos:station:USF.COMPS:C13:1,2015-10-07T16:05:00Z,26.0630,-83.0730,71.82,1111122 
COMPS,ioos:station:USF.COMPS:C13:1,2015-10-07T16:35:00Z,26.0630,-83.0730,71.24,1111122 
COMPS,ioos:station:USF.COMPS:C13:1,2015-10-07T17:05:00Z,26.0630,-83.0730,71.43,1111122 
COMPS,ioos:station:USF.COMPS:C13:1,2015-10-07T17:35:00Z,26.0630,-83.0730,70.1,1111122 
COMPS,ioos:station:USF.COMPS:C13:1,2015-10-07T18:05:00Z,26.0630,-83.0730,69.2,1111122 
COMPS,ioos:station:USF.COMPS:C13:1,2015-10-07T18:35:00Z,26.0630,-83.0730,68.88,1111122 
COMPS,ioos:station:USF.COMPS:C13:1,2015-10-07T20:05:00Z,26.0630,-83.0730,64.66,1111122 
COMPS,ioos:station:USF.COMPS:C13:1,2015-10-07T20:35:00Z,26.0630,-83.0730,81.39,1111122 
COMPS,ioos:station:USF.COMPS:C13:1,2015-10-07T21:05:00Z,26.0630,-83.0730,85.33,1111122 
COMPS,ioos:station:USF.COMPS:C13:1,2015-10-07T21:35:00Z,26.0630,-83.0730,84.16,1111122 
COMPS,ioos:station:USF.COMPS:C13:1,2015-10-07T22:05:00Z,26.0630,-83.0730,80.4,1111122 
COMPS,ioos:station:USF.COMPS:C13:1,2015-10-07T22:35:00Z,26.0630,-83.0730,76.72,1111122 
COMPS,ioos:station:USF.COMPS:C13:1,2015-10-07T23:05:00Z,26.0630,-83.0730,77.46,1111122 
COMPS,ioos:station:USF.COMPS:C13:1,2015-10-07T23:35:00Z,26.0630,-83.0730,76.68,1111122 
COMPS,ioos:station:USF.COMPS:C13:1,2015-10-08T00:05:00Z,26.0630,-83.0730,76.07,1111122 
COMPS,ioos:station:USF.COMPS:C13:1,2015-10-08T00:35:00Z,26.0630,-83.0730,77.95,1111122 
COMPS,ioos:station:USF.COMPS:C13:1,2015-10-08T01:05:00Z,26.0630,-83.0730,77.68,1111122 
COMPS,ioos:station:USF.COMPS:C13:1,2015-10-08T01:35:00Z,26.0630,-83.0730,77.21,1111122 
COMPS,ioos:station:USF.COMPS:C13:1,2015-10-08T02:05:00Z,26.0630,-83.0730,77.11,1111122 
COMPS,ioos:station:USF.COMPS:C13:1,2015-10-08T02:35:00Z,26.0630,-83.0730,77.56,1111122 
COMPS,ioos:station:USF.COMPS:C13:1,2015-10-08T04:05:00Z,26.0630,-83.0730,78.27,1111122 
COMPS,ioos:station:USF.COMPS:C13:1,2015-10-08T04:35:00Z,26.0630,-83.0730,78.91,1111122 
COMPS,ioos:station:USF.COMPS:C13:1,2015-10-08T05:05:00Z,26.0630,-83.0730,78.39,1111122 
COMPS,ioos:station:USF.COMPS:C13:1,2015-10-08T05:35:00Z,26.0630,-83.0730,77.39,1111122 
COMPS,ioos:station:USF.COMPS:C13:1,2015-10-08T07:05:00Z,26.0630,-83.0730,78.72,1111122 
COMPS,ioos:station:USF.COMPS:C13:1,2015-10-08T07:35:00Z,26.0630,-83.0730,77.91,1111122 
COMPS,ioos:station:USF.COMPS:C13:1,2015-10-08T09:05:00Z,26.0630,-83.0730,77.29,1111122 
COMPS,ioos:station:USF.COMPS:C13:1,2015-10-08T09:35:00Z,26.0630,-83.0730,78.67,1111122 
COMPS,ioos:station:USF.COMPS:C13:1,2015-10-08T12:05:00Z,26.0630,-83.0730,79.28,1111122 
COMPS,ioos:station:USF.COMPS:C13:1,2015-10-08T12:35:00Z,26.0630,-83.0730,78.72,1111122 
COMPS,ioos:station:USF.COMPS:C13:1,2015-10-08T13:05:00Z,26.0630,-83.0730,83.63,1111122 
COMPS,ioos:station:USF.COMPS:C13:1,2015-10-08T13:35:00Z,26.0630,-83.0730,81.35,1111122 
COMPS,ioos:station:USF.COMPS:C13:1,2015-10-08T14:05:00Z,26.0630,-83.0730,80.0,1111122 
COMPS,ioos:station:USF.COMPS:C13:1,2015-10-08T14:35:00Z,26.0630,-83.0730,76.82,1111122 
COMPS,ioos:station:USF.COMPS:C13:1,2015-10-08T15:05:00Z,26.0630,-83.0730,77.58,1111122 
COMPS,ioos:station:USF.COMPS:C13:1,2015-10-08T15:35:00Z,26.0630,-83.0730,76.98,1111122 
COMPS,ioos:station:USF.COMPS:C13:1,2015-10-08T17:05:00Z,26.0630,-83.0730,79.95,1111122 
COMPS,ioos:station:USF.COMPS:C13:1,2015-10-08T17:35:00Z,26.0630,-83.0730,83.04,1111122 
COMPS,ioos:station:USF.COMPS:C13:1,2015-10-08T18:05:00Z,26.0630,-83.0730,83.29,1111122 
COMPS,ioos:station:USF.COMPS:C13:1,2015-10-08T18:35:00Z,26.0630,-83.0730,85.09,1111122 
COMPS,ioos:station:USF.COMPS:C13:1,2015-10-08T19:05:00Z,26.0630,-83.0730,84.66,1111122 
COMPS,ioos:station:USF.COMPS:C13:1,2015-10-08T19:35:00Z,26.0630,-83.0730,84.0,1111122 
COMPS,ioos:station:USF.COMPS:C13:1,2015-10-08T20:05:00Z,26.0630,-83.0730,84.26,1111122 
COMPS,ioos:station:USF.COMPS:C13:1,2015-10-08T20:35:00Z,26.0630,-83.0730,81.6,1111122 
COMPS,ioos:station:USF.COMPS:C13:1,2015-10-08T21:05:00Z,26.0630,-83.0730,82.18,1111122 
COMPS,ioos:station:USF.COMPS:C13:1,2015-10-08T21:35:00Z,26.0630,-83.0730,80.92,1111122 
COMPS,ioos:station:USF.COMPS:C13:1,2015-10-08T22:05:00Z,26.0630,-83.0730,83.29,1111122 
COMPS,ioos:station:USF.COMPS:C13:1,2015-10-08T22:35:00Z,26.0630,-83.0730,83.08,1111122 
COMPS,ioos:station:USF.COMPS:C13:1,2015-10-09T00:05:00Z,26.0630,-83.0730,82.99,1111122 
COMPS,ioos:station:USF.COMPS:C13:1,2015-10-09T00:35:00Z,26.0630,-83.0730,81.62,1111122 
COMPS,ioos:station:USF.COMPS:C13:1,2015-10-09T04:05:00Z,26.0630,-83.0730,80.06,1111122 
COMPS,ioos:station:USF.COMPS:C13:1,2015-10-09T04:35:00Z,26.0630,-83.0730,80.59,1111122 
COMPS,ioos:station:USF.COMPS:C13:1,2015-10-09T08:05:00Z,26.0630,-83.0730,81.89,1111122 
COMPS,ioos:station:USF.COMPS:C13:1,2015-10-09T08:35:00Z,26.0630,-83.0730,82.16,1111122 
COMPS,ioos:station:USF.COMPS:C13:1,2015-10-09T10:05:00Z,26.0630,-83.0730,80.42,1111122 
COMPS,ioos:station:USF.COMPS:C13:1,2015-10-09T10:35:00Z,26.0630,-83.0730,80.07,1111122 
COMPS,ioos:station:USF.COMPS:C13:1,2015-10-09T13:05:00Z,26.0630,-83.0730,77.41,1111122 
COMPS,ioos:station:USF.COMPS:C13:1,2015-10-09T13:35:00Z,26.0630,-83.0730,77.14,1111122 
COMPS,ioos:station:USF.COMPS:C13:1,2015-10-09T14:05:00Z,26.0630,-83.0730,77.73,1111122 
COMPS,ioos:station:USF.COMPS:C13:1,2015-10-09T14:35:00Z,26.0630,-83.0730,78.27,1111122 
COMPS,ioos:station:USF.COMPS:C13:1,2015-10-09T15:05:00Z,26.0630,-83.0730,78.53,1111122 
COMPS,ioos:station:USF.COMPS:C13:1,2015-10-09T15:35:00Z,26.0630,-83.0730,78.47,1111122 
COMPS,ioos:station:USF.COMPS:C13:1,2015-10-09T16:05:00Z,26.0630,-83.0730,77.24,1111122 
COMPS,ioos:station:USF.COMPS:C13:1,2015-10-09T16:35:00Z,26.0630,-83.0730,75.16,1111122 
COMPS,ioos:station:USF.COMPS:C13:1,2015-10-09T17:05:00Z,26.0630,-83.0730,76.44,1111122 
COMPS,ioos:station:USF.COMPS:C13:1,2015-10-09T17:35:00Z,26.0630,-83.0730,74.81,1111122 
COMPS,ioos:station:USF.COMPS:C13:1,2015-10-09T19:05:00Z,26.0630,-83.0730,75.11,1111122 
COMPS,ioos:station:USF.COMPS:C13:1,2015-10-09T19:35:00Z,26.0630,-83.0730,73.04,1111122 
COMPS,ioos:station:USF.COMPS:C13:1,2015-10-09T20:05:00Z,26.0630,-83.0730,70.97,1111122 
COMPS,ioos:station:USF.COMPS:C13:1,2015-10-09T20:35:00Z,26.0630,-83.0730,70.73,1111122 
COMPS,ioos:station:USF.COMPS:C13:1,2015-10-09T21:05:00Z,26.0630,-83.0730,71.76,1111122 
COMPS,ioos:station:USF.COMPS:C13:1,2015-10-09T21:35:00Z,26.0630,-83.0730,67.69,1111122 
COMPS,ioos:station:USF.COMPS:C13:1,2015-10-09T22:05:00Z,26.0630,-83.0730,68.8,1111122 
COMPS,ioos:station:USF.COMPS:C13:1,2015-10-09T22:35:00Z,26.0630,-83.0730,71.75,1111122 
COMPS,ioos:station:USF.COMPS:C13:1,2015-10-10T05:05:00Z,26.0630,-83.0730,77.55,1111122 
COMPS,ioos:station:USF.COMPS:C13:1,2015-10-10T05:35:00Z,26.0630,-83.0730,76.85,1111122 
COMPS,ioos:station:USF.COMPS:C13:1,2015-10-10T06:05:00Z,26.0630,-83.0730,76.43,1111122 
COMPS,ioos:station:USF.COMPS:C13:1,2015-10-10T06:35:00Z,26.0630,-83.0730,75.99,1111122 
COMPS,ioos:station:USF.COMPS:C13:1,2015-10-10T07:05:00Z,26.0630,-83.0730,76.65,1111122 
COMPS,ioos:station:USF.COMPS:C13:1,2015-10-10T07:35:00Z,26.0630,-83.0730,76.41,1111122 
COMPS,ioos:station:USF.COMPS:C13:1,2015-10-10T08:05:00Z,26.0630,-83.0730,75.88,1111122 
COMPS,ioos:station:USF.COMPS:C13:1,2015-10-10T08:35:00Z,26.0630,-83.0730,76.44,1111122 
COMPS,ioos:station:USF.COMPS:C13:1,2015-10-10T09:05:00Z,26.0630,-83.0730,77.12,1111122 
COMPS,ioos:station:USF.COMPS:C13:1,2015-10-10T09:35:00Z,26.0630,-83.0730,77.1,1111122 
COMPS,ioos:station:USF.COMPS:C13:1,2015-10-10T16:05:00Z,26.0630,-83.0730,80.96,1111122 
COMPS,ioos:station:USF.COMPS:C13:1,2015-10-10T16:35:00Z,26.0630,-83.0730,80.09,1111122 
COMPS,ioos:station:USF.COMPS:C13:1,2015-10-10T19:05:00Z,26.0630,-83.0730,82.57,1111122 
COMPS,ioos:station:USF.COMPS:C13:1,2015-10-10T19:35:00Z,26.0630,-83.0730,79.81,1111122 
COMPS,ioos:station:USF.COMPS:C13:1,2015-10-10T20:05:00Z,26.0630,-83.0730,82.04,1111122 
COMPS,ioos:station:USF.COMPS:C13:1,2015-10-10T20:35:00Z,26.0630,-83.0730,80.74,1111122 
COMPS,ioos:station:USF.COMPS:C13:1,2015-10-10T21:05:00Z,26.0630,-83.0730,80.3,1111122 
COMPS,ioos:station:USF.COMPS:C13:1,2015-10-10T21:35:00Z,26.0630,-83.0730,81.07,1111122 
COMPS,ioos:station:USF.COMPS:C13:1,2015-10-10T23:05:00Z,26.0630,-83.0730,81.28,1111122 
COMPS,ioos:station:USF.COMPS:C13:1,2015-10-10T23:35:00Z,26.0630,-83.0730,79.27,1111122 
COMPS,ioos:station:USF.COMPS:C13:1,2015-10-11T12:05:00Z,26.0630,-83.0730,73.28,1111122 
COMPS,ioos:station:USF.COMPS:C13:1,2015-10-11T12:35:00Z,26.0630,-83.0730,73.53,1111122 
COMPS,ioos:station:USF.COMPS:C13:1,2015-10-11T13:05:00Z,26.0630,-83.0730,72.69,1111122 
COMPS,ioos:station:USF.COMPS:C13:1,2015-10-11T13:35:00Z,26.0630,-83.0730,73.73,1111122 
COMPS,ioos:station:USF.COMPS:C13:1,2015-10-11T14:05:00Z,26.0630,-83.0730,73.98,1111122 
COMPS,ioos:station:USF.COMPS:C13:1,2015-10-11T14:35:00Z,26.0630,-83.0730,73.47,1111122 
COMPS,ioos:station:USF.COMPS:C13:1,2015-10-11T15:05:00Z,26.0630,-83.0730,71.85,1111122 
COMPS,ioos:station:USF.COMPS:C13:1,2015-10-11T15:35:00Z,26.0630,-83.0730,72.61,1111122 
COMPS,ioos:station:USF.COMPS:C13:1,2015-10-11T16:05:00Z,26.0630,-83.0730,71.91,1111122 
COMPS,ioos:station:USF.COMPS:C13:1,2015-10-11T16:35:00Z,26.0630,-83.0730,72.88,1111122 
COMPS,ioos:station:USF.COMPS:C13:1,2015-10-11T21:05:00Z,26.0630,-83.0730,74.2,1111122 
COMPS,ioos:station:USF.COMPS:C13:1,2015-10-11T21:35:00Z,26.0630,-83.0730,72.62,1111122 
COMPS,ioos:station:USF.COMPS:C13:1,2015-10-11T22:05:00Z,26.0630,-83.0730,73.66,1111122 
COMPS,ioos:station:USF.COMPS:C13:1,2015-10-11T22:35:00Z,26.0630,-83.0730,76.97,1111122 
COMPS,ioos:station:USF.COMPS:C13:1,2015-10-11T23:05:00Z,26.0630,-83.0730,75.81,1111122 
COMPS,ioos:station:USF.COMPS:C13:1,2015-10-11T23:35:00Z,26.0630,-83.0730,74.92,1111122 
COMPS,ioos:station:USF.COMPS:C13:1,2015-10-12T00:05:00Z,26.0630,-83.0730,76.25,1111122 
COMPS,ioos:station:USF.COMPS:C13:1,2015-10-12T00:35:00Z,26.0630,-83.0730,82.65,1111122 
COMPS,ioos:station:USF.COMPS:C13:1,2015-10-12T01:05:00Z,26.0630,-83.0730,80.58,1111122 
COMPS,ioos:station:USF.COMPS:C13:1,2015-10-12T01:35:00Z,26.0630,-83.0730,81.94,1111122 
COMPS,ioos:station:USF.COMPS:C13:1,2015-10-12T02:05:00Z,26.0630,-83.0730,82.12,1111122 
COMPS,ioos:station:USF.COMPS:C13:1,2015-10-12T02:35:00Z,26.0630,-83.0730,81.22,1111122 
COMPS,ioos:station:USF.COMPS:C13:1,2015-10-12T03:05:00Z,26.0630,-83.0730,77.44,1111122 
COMPS,ioos:station:USF.COMPS:C13:1,2015-10-12T03:35:00Z,26.0630,-83.0730,74.38,1111122 
COMPS,ioos:station:USF.COMPS:C13:1,2015-10-12T04:05:00Z,26.0630,-83.0730,72.17,1111122 
COMPS,ioos:station:USF.COMPS:C13:1,2015-10-12T04:35:00Z,26.0630,-83.0730,72.36,1111122 
COMPS,ioos:station:USF.COMPS:C13:1,2015-10-12T05:05:00Z,26.0630,-83.0730,71.89,1111122 
COMPS,ioos:station:USF.COMPS:C13:1,2015-10-12T05:35:00Z,26.0630,-83.0730,71.6,1111122 
COMPS,ioos:station:USF.COMPS:C13:1,2015-10-12T06:05:00Z,26.0630,-83.0730,72.28,1111122 
COMPS,ioos:station:USF.COMPS:C13:1,2015-10-12T06:35:00Z,26.0630,-83.0730,73.03,1111122 
COMPS,ioos:station:USF.COMPS:C13:1,2015-10-12T07:05:00Z,26.0630,-83.0730,78.83,1111122 
COMPS,ioos:station:USF.COMPS:C13:1,2015-10-12T07:35:00Z,26.0630,-83.0730,76.92,1111122 
COMPS,ioos:station:USF.COMPS:C13:1,2015-10-12T08:05:00Z,26.0630,-83.0730,77.65,1111122 
COMPS,ioos:station:USF.COMPS:C13:1,2015-10-12T08:35:00Z,26.0630,-83.0730,78.11,1111122 
COMPS,ioos:station:USF.COMPS:C13:1,2015-10-12T18:05:00Z,26.0630,-83.0730,61.56,1111122 
COMPS,ioos:station:USF.COMPS:C13:1,2015-10-12T18:35:00Z,26.0630,-83.0730,63.2,1111122 
COMPS,ioos:station:USF.COMPS:C13:1,2015-10-13T04:05:00Z,26.0630,-83.0730,67.04,1111122 
COMPS,ioos:station:USF.COMPS:C13:1,2015-10-13T04:35:00Z,26.0630,-83.0730,68.98,1111122 
COMPS,ioos:station:USF.COMPS:C13:1,2015-10-13T05:05:00Z,26.0630,-83.0730,69.47,1111122 
COMPS,ioos:station:USF.COMPS:C13:1,2015-10-13T05:35:00Z,26.0630,-83.0730,69.76,1111122 
COMPS,ioos:station:USF.COMPS:C13:1,2015-10-13T06:05:00Z,26.0630,-83.0730,71.06,1111122 
COMPS,ioos:station:USF.COMPS:C13:1,2015-10-13T06:35:00Z,26.0630,-83.0730,71.48,1111122 
COMPS,ioos:station:USF.COMPS:C13:1,2015-10-13T07:05:00Z,26.0630,-83.0730,73.34,1111122 
COMPS,ioos:station:USF.COMPS:C13:1,2015-10-13T07:35:00Z,26.0630,-83.0730,74.74,1111122 
COMPS,ioos:station:USF.COMPS:C13:1,2015-10-13T08:05:00Z,26.0630,-83.0730,73.9,1111122 
COMPS,ioos:station:USF.COMPS:C13:1,2015-10-13T08:35:00Z,26.0630,-83.0730,74.88,1111122 
COMPS,ioos:station:USF.COMPS:C13:1,2015-10-13T12:05:00Z,26.0630,-83.0730,73.33,1111122 
COMPS,ioos:station:USF.COMPS:C13:1,2015-10-13T12:35:00Z,26.0630,-83.0730,72.77,1111122 
COMPS,ioos:station:USF.COMPS:C13:1,2015-10-13T16:05:00Z,26.0630,-83.0730,73.7,1111122 
COMPS,ioos:station:USF.COMPS:C13:1,2015-10-13T16:35:00Z,26.0630,-83.0730,71.13,1111122 
COMPS,ioos:station:USF.COMPS:C13:1,2015-10-13T17:05:00Z,26.0630,-83.0730,74.01,1111122 
COMPS,ioos:station:USF.COMPS:C13:1,2015-10-13T17:35:00Z,26.0630,-83.0730,74.38,1111122 
COMPS,ioos:station:USF.COMPS:C13:1,2015-10-13T19:05:00Z,26.0630,-83.0730,78.38,1111122 
COMPS,ioos:station:USF.COMPS:C13:1,2015-10-13T19:35:00Z,26.0630,-83.0730,73.89,1111122 
COMPS,ioos:station:USF.COMPS:C13:1,2015-10-13T22:05:00Z,26.0630,-83.0730,74.79,1111122 
COMPS,ioos:station:USF.COMPS:C13:1,2015-10-13T22:35:00Z,26.0630,-83.0730,74.09,1111122 
COMPS,ioos:station:USF.COMPS:C13:1,2015-10-14T04:05:00Z,26.0630,-83.0730,67.51,1111122 
COMPS,ioos:station:USF.COMPS:C13:1,2015-10-14T04:35:00Z,26.0630,-83.0730,67.7,1111122 
COMPS,ioos:station:USF.COMPS:C13:1,2015-10-14T05:05:00Z,26.0630,-83.0730,65.47,1111122 
COMPS,ioos:station:USF.COMPS:C13:1,2015-10-14T05:35:00Z,26.0630,-83.0730,63.56,1111122 
COMPS,ioos:station:USF.COMPS:C13:1,2015-10-14T06:05:00Z,26.0630,-83.0730,64.62,1111122 
COMPS,ioos:station:USF.COMPS:C13:1,2015-10-14T06:35:00Z,26.0630,-83.0730,62.98,1111122 
COMPS,ioos:station:USF.COMPS:C13:1,2015-10-14T08:05:00Z,26.0630,-83.0730,66.62,1111122 
COMPS,ioos:station:USF.COMPS:C13:1,2015-10-14T08:35:00Z,26.0630,-83.0730,66.68,1111122 
COMPS,ioos:station:USF.COMPS:C13:1,2015-10-14T09:05:00Z,26.0630,-83.0730,68.69,1111122 
COMPS,ioos:station:USF.COMPS:C13:1,2015-10-14T09:35:00Z,26.0630,-83.0730,68.09,1111122 
COMPS,ioos:station:USF.COMPS:C13:1,2015-10-14T10:05:00Z,26.0630,-83.0730,68.08,1111122 
COMPS,ioos:station:USF.COMPS:C13:1,2015-10-14T10:35:00Z,26.0630,-83.0730,67.46,1111122 
COMPS,ioos:station:USF.COMPS:C13:1,2015-10-14T11:05:00Z,26.0630,-83.0730,69.02,1111122 
COMPS,ioos:station:USF.COMPS:C13:1,2015-10-14T11:35:00Z,26.0630,-83.0730,68.83,1111122 
COMPS,ioos:station:USF.COMPS:C13:1,2015-10-14T12:05:00Z,26.0630,-83.0730,66.5,1111122 
COMPS,ioos:station:USF.COMPS:C13:1,2015-10-14T12:35:00Z,26.0630,-83.0730,66.98,1111122 
COMPS,ioos:station:USF.COMPS:C13:1,2015-10-14T22:05:00Z,26.0630,-83.0730,69.22,1111122 
COMPS,ioos:station:USF.COMPS:C13:1,2015-10-14T22:35:00Z,26.0630,-83.0730,68.36,1111122 
COMPS,ioos:station:USF.COMPS:C13:1,2015-10-14T23:05:00Z,26.0630,-83.0730,69.16,1111122 
COMPS,ioos:station:USF.COMPS:C13:1,2015-10-14T23:35:00Z,26.0630,-83.0730,69.74,1111122 
COMPS,ioos:station:USF.COMPS:C13:1,2015-10-15T00:05:00Z,26.0630,-83.0730,68.18,1111122 
COMPS,ioos:station:USF.COMPS:C13:1,2015-10-15T00:35:00Z,26.0630,-83.0730,69.2,1111122 
COMPS,ioos:station:USF.COMPS:C13:1,2015-10-15T01:05:00Z,26.0630,-83.0730,67.51,1111122 
COMPS,ioos:station:USF.COMPS:C13:1,2015-10-15T01:35:00Z,26.0630,-83.0730,67.53,1111122 
COMPS,ioos:station:USF.COMPS:C13:1,2015-10-15T02:05:00Z,26.0630,-83.0730,70.86,1111122 
COMPS,ioos:station:USF.COMPS:C13:1,2015-10-15T02:35:00Z,26.0630,-83.0730,71.25,1111122 
COMPS,ioos:station:USF.COMPS:C13:1,2015-10-15T04:05:00Z,26.0630,-83.0730,70.01,1111122 
COMPS,ioos:station:USF.COMPS:C13:1,2015-10-15T04:35:00Z,26.0630,-83.0730,71.05,1111122 